Regional Weather Roundup
Issued by NWS Spokane, WA

Home | Current Version | Previous Version | Text Only | Print | Product List | Glossary On
Versions: 1 2 3 4 5 6 7 8 9 10 11 12 13 14 15 16 17 18 19 20 21 22 23 24 25 26 27 28 29 30 31 32 33 34 35 36 37 38 39 40 41 42 43 44 45 46 47 48 49 50
000
NZUS01 KOTX 240700
RWROTX
EASTERN WASHINGTON/NORTHERN IDAHO ROUNDUP
NATIONAL WEATHER SERVICE, SPOKANE WA
1200 AM PDT THU APR 24 2014

Note: "fair" indicated few or no clouds below 12,000 feet with no
significant weather and/or obstructions to visibility.

...NORTHEAST WASHINGTON AND NORTHERN IDAHO PANHANDLE...

CITY           SKY/WX    TMP DP  RH WIND       PRES   REMARKS
SPOKANE INTL   LGT RAIN  42  37  82 SE10      29.82S
SPOKANE DOWNTO CLOUDY    47  37  68 S6        29.84S
COEUR D ALENE  CLOUDY    43  36  75 S7        29.84F
DEER PARK      CLOUDY    43  37  79 SE6       29.83F

...SOUTHEAST WASHINGTON AND SOUTHERN IDAHO PANHANDLE...

CITY           SKY/WX    TMP DP  RH WIND       PRES   REMARKS
WALLA WALLA    LGT RAIN  51  45  79 CALM      29.83S
PULLMAN/MOSCOW LGT RAIN  40  37  89 E12       29.86F
LOWELL           N/A     42  40  92 CALM      29.95F

...COLUMBIA BASIN...

CITY           SKY/WX    TMP DP  RH WIND       PRES   REMARKS
EPHRATA        LGT RAIN  47  45  93 SE15      29.75F
MOSES LAKE     CLOUDY    48  46  93 SE13      29.77F
TRI CITIES     CLOUDY    52  47  83 SE10      29.79F
HERMISTON      CLOUDY    51  48  89 E8        29.78F
PENDLETON      LGT RAIN  50  42  74 S12       29.80F

...EAST SLOPES CASCADES...

CITY           SKY/WX    TMP DP  RH WIND       PRES   REMARKS
THE DALLES     CLOUDY    51  48  89 E7        29.77S
YAKIMA         CLOUDY    51  44  77 SE8       29.73F
ELLENSBURG     CLOUDY    47  43  86 E7        29.72F
WENATCHEE      CLOUDY    50  43  77 SE13      29.72F
OMAK           RAIN      49  41  74 S12       29.76S

...SOUTHERN BRITISH COLUMBIA...

CITY           SKY/WX    TMP DP  RH WIND       PRES   REMARKS

...WESTERN MONTANA...

CITY           SKY/WX    TMP DP  RH WIND       PRES   REMARKS
MISSOULA       CLOUDY    38  36  92 SW3       29.91S

...NEIGHBORING CITIES...

CITY           SKY/WX    TMP DP  RH WIND       PRES   REMARKS
SEATTLE        LGT RAIN  49  46  90 SE13      29.65F



USA.gov is the U.S. government's official web portal to all federal, state and local government web resources and services.